Elefsis, Greece

11:20 AM EEST on June 25, 2017 (GMT +0300)
Elefsis Air Base

Weather History for LGEL - December, 2012

Change the Weather History Date:

Tuesday, December 18, 2012

  Actual Average Record
Temperature  
Mean Temperature 55 °F -  
Max Temperature 60 °F 54 °F 66 °F (2005)
Min Temperature 50 °F 41 °F 32 °F (2001)
Degree Days  
Heating Degree Days 10    
Growing Degree Days 5 (Base 50)    
Moisture  
Dew Point 49 °F    
Average Humidity 82    
Maximum Humidity 94    
Minimum Humidity 63    
Precipitation  
Precipitation 0.00 in - - ()
Sea Level Pressure  
Sea Level Pressure 29.66 in    
Wind  
Wind Speed 2 mph ()    
Max Wind Speed 9 mph    
Max Gust Speed -    
Visibility 5.8 miles    
Events Rain    
Averages and records for this station are not official NWS values.
T = Trace of Precipitation, MM = Missing Value Source: Averaged Metar Reports

Daily Weather History Graph

Daily Weather History Graph

Search for Another Location

Airport or City:

Trip Planner

Search our weather history database for the weather conditions in past years. The results will help you decide how hot, cold, wet, or windy it might be!

Date:

Astronomy

Dec. 18, 2012 Rise Set
Actual Time 7:36 AM EET 5:08 PM EET
Civil Twilight 7:07 AM EET 5:37 PM EET
Nautical Twilight 6:34 AM EET 6:10 PM EET
Astronomical Twilight 6:02 AM EET 6:43 PM EET
Moon 11:11 AM EET (12/18) 11:09 PM EET (12/18)
Length of Visible Light 10h 30m
Length of Day
9h 31m
Waxing Crescent, 31% of the Moon is Illuminated
Dec 18
Waxing Crescent
Dec 20
First Quarter
Dec 28
Full
Jan 5
Last Quarter
Jan 11
New

Hourly Weather History & Observations

Time (EET) Temp. Dew Point Humidity Pressure Visibility Wind Dir Wind Speed Gust Speed Precip Events Conditions
2:50 AM 55.4 °F 53.6 °F 94% 29.77 in 6.2 mi Calm Calm - N/A   Mostly Cloudy
3:50 AM 53.6 °F 51.8 °F 94% 29.74 in 6.2 mi Calm Calm - N/A   Mostly Cloudy
4:50 AM 53.6 °F 51.8 °F 94% 29.71 in 6.2 mi Variable 2.3 mph - N/A   Mostly Cloudy
5:20 AM 53.6 °F 51.8 °F 94% 29.71 in 6.2 mi Calm Calm - N/A   Mostly Cloudy
5:50 AM 53.6 °F 51.8 °F 94% 29.71 in 6.2 mi Calm Calm - N/A Rain Light Rain
6:20 AM 53.6 °F 50.0 °F 88% 29.71 in 6.2 mi Variable 2.3 mph - N/A Rain Light Rain
6:50 AM 53.6 °F 51.8 °F 94% 29.71 in 6.2 mi Calm Calm - N/A   Mostly Cloudy
7:20 AM 53.6 °F 51.8 °F 94% 29.71 in 4.3 mi Calm Calm - N/A Rain Light Rain
7:50 AM 53.6 °F 51.8 °F 94% 29.71 in 5.6 mi Calm Calm - N/A   Mostly Cloudy
8:20 AM 53.6 °F 51.8 °F 94% 29.71 in 5.6 mi Calm Calm - N/A   Mostly Cloudy
8:50 AM 53.6 °F 51.8 °F 94% 29.71 in 5.6 mi Calm Calm - N/A   Mostly Cloudy
9:20 AM 53.6 °F 51.8 °F 94% 29.71 in 5.6 mi Calm Calm - N/A   Mostly Cloudy
9:50 AM 55.4 °F 51.8 °F 88% 29.71 in 5.6 mi Calm Calm - N/A   Mostly Cloudy
10:20 AM 57.2 °F 51.8 °F 82% 29.68 in 5.6 mi Calm Calm - N/A   Mostly Cloudy
10:50 AM 55.4 °F 51.8 °F 88% 29.68 in 3.1 mi Calm Calm - N/A Rain Rain
11:20 AM 53.6 °F 51.8 °F 94% 29.68 in 3.7 mi Calm Calm - N/A Rain Light Rain
12:20 PM 50.0 °F 48.2 °F 94% 29.65 in 3.1 mi North 6.9 mph - N/A   Overcast
12:50 PM 53.6 °F 50.0 °F 88% 29.62 in 6.2 mi WSW 4.6 mph - N/A   Mostly Cloudy
1:20 PM 55.4 °F 50.0 °F 82% 29.62 in 6.2 mi Calm Calm - N/A   Partly Cloudy
1:50 PM 59.0 °F 50.0 °F 72% 29.59 in 6.2 mi South 8.1 mph - N/A   Scattered Clouds
2:50 PM 60.8 °F 50.0 °F 68% 29.59 in 6.2 mi Calm Calm - N/A   Partly Cloudy
3:20 PM 60.8 °F 50.0 °F 68% 29.59 in 6.2 mi West 9.2 mph - N/A   Partly Cloudy
3:50 PM 59.0 °F 46.4 °F 63% 29.59 in 6.2 mi West 9.2 mph - N/A   Scattered Clouds
4:20 PM 59.0 °F 46.4 °F 63% 29.59 in 6.2 mi NW 5.8 mph - N/A   Scattered Clouds
4:50 PM 57.2 °F 44.6 °F 63% 29.59 in 6.2 mi WNW 9.2 mph - N/A   Scattered Clouds
5:20 PM 57.2 °F 46.4 °F 67% 29.62 in 6.2 mi NW 4.6 mph - N/A   Mostly Cloudy
5:50 PM 55.4 °F 44.6 °F 67% 29.62 in 6.2 mi WNW 4.6 mph - N/A   Scattered Clouds
6:20 PM 55.4 °F 44.6 °F 67% 29.62 in 6.2 mi Calm Calm - N/A   Scattered Clouds
6:50 PM 51.8 °F 44.6 °F 76% 29.62 in 6.2 mi Calm Calm - N/A   Scattered Clouds
7:20 PM 51.8 °F 44.6 °F 76% 29.62 in 6.2 mi Calm Calm - N/A   Scattered Clouds
7:50 PM 51.8 °F 44.6 °F 76% 29.62 in 6.2 mi Calm Calm - N/A   Scattered Clouds
8:20 PM 51.8 °F 44.6 °F 76% 29.62 in 6.2 mi Calm Calm - N/A   Scattered Clouds
8:50 PM 51.8 °F 44.6 °F 76% 29.65 in 6.2 mi Calm Calm - N/A   Scattered Clouds
9:20 PM 51.8 °F 44.6 °F 76% 29.62 in 6.2 mi West 3.5 mph - N/A   Scattered Clouds
9:50 PM 50.0 °F 44.6 °F 82% 29.65 in 6.2 mi WNW 3.5 mph - N/A   Scattered Clouds
10:50 PM 50.0 °F 44.6 °F 82% 29.65 in 6.2 mi NW 5.8 mph - N/A   Scattered Clouds
11:50 PM 51.8 °F 42.8 °F 71% 29.65 in 6.2 mi NNW 9.2 mph - N/A   Scattered Clouds